Kaneohe MCBH, HI

2:06 AM HST on April 24, 2017 (GMT -1000)
Kaneohe Bay Marine Corps Air Facility

Weather History for PHNG - January, 2014

Change the Weather History Date:

Wednesday, January 1, 2014

  Actual Average Record
Temperature  
Mean Temperature 76 °F -  
Max Temperature 82 °F 76 °F 82 °F (2003)
Min Temperature 71 °F 66 °F 35 °F (2005)
Cooling Degree Days 12    
Growing Degree Days 26 (Base 50)    
Moisture  
Dew Point 65 °F    
Average Humidity 69    
Maximum Humidity 78    
Minimum Humidity 55    
Precipitation  
Precipitation 0.00 in - - ()
Sea Level Pressure  
Sea Level Pressure 29.92 in    
Wind  
Wind Speed 1 mph (SE)    
Max Wind Speed 7 mph    
Max Gust Speed -    
Visibility 7 miles    
Events      
Averages and records for this station are not official NWS values.
T = Trace of Precipitation, MM = Missing Value Source: NWS Daily Summary

Daily Weather History Graph

Daily Weather History Graph

Search for Another Location

Airport or City:

Trip Planner

Search our weather history database for the weather conditions in past years. The results will help you decide how hot, cold, wet, or windy it might be!

Date:

Astronomy

Jan. 01, 2014 Rise Set
Actual Time 7:09 AM HST 6:00 PM HST
Civil Twilight 6:44 AM HST 6:24 PM HST
Nautical Twilight 6:17 AM HST 6:52 PM HST
Astronomical Twilight 5:49 AM HST 7:19 PM HST
Moon 7:18 AM HST (1/1) 6:48 PM HST (1/1)
Length of Visible Light 11h 39m
Length of Day
10h 51m
New Moon, 0% of the Moon is Illuminated
Jan 1
New Moon
Jan 7
First Quarter
Jan 15
Full
Jan 23
Last Quarter
Jan 30
New

Hourly Weather History & Observations

Time (HST) Temp. Heat Index Dew Point Humidity Pressure Visibility Wind Dir Wind Speed Gust Speed Precip Events Conditions
12:05 AM - - - N/A% 29.97 in 6.0 mi Calm Calm - N/A   Overcast
12:12 AM 71.6 °F - 64.4 °F 78% 29.97 in 6.2 mi Calm Calm - N/A   Overcast
12:59 AM - - - N/A% 29.96 in 2.5 mi Calm Calm - N/A   Overcast
1:11 AM - - - N/A% 29.96 in 1.8 mi Calm Calm - N/A   Overcast
1:21 AM 71.6 °F - 64.4 °F 78% 29.96 in 6.2 mi Calm Calm - N/A   Overcast
1:57 AM 72.1 °F - 64.0 °F 76% 29.94 in 7.0 mi SW 3.5 mph - N/A   Overcast
2:57 AM 72.1 °F - 64.0 °F 76% 29.92 in 7.0 mi Calm Calm - N/A   Mostly Cloudy
3:57 AM 72.1 °F - 63.0 °F 73% 29.91 in 7.0 mi Calm Calm - N/A   Scattered Clouds
4:57 AM 71.6 °F - 63.0 °F 74% 29.91 in 7.0 mi Calm Calm - N/A   Scattered Clouds
5:04 AM 71.6 °F - 64.4 °F 78% 29.93 in 6.2 mi Calm Calm - N/A   Scattered Clouds
5:57 AM 71.6 °F - 64.0 °F 77% 29.92 in 7.0 mi Calm Calm - N/A   Scattered Clouds
6:57 AM 71.6 °F - 64.0 °F 77% 29.94 in 7.0 mi Calm Calm - N/A   Scattered Clouds
7:57 AM 73.8 °F - 64.0 °F 72% 29.95 in 7.0 mi Calm Calm - N/A   Scattered Clouds
8:57 AM 73.4 °F - 66.0 °F 78% 29.96 in 7.0 mi Calm Calm - N/A   Scattered Clouds
9:57 AM 77.0 °F - 69.1 °F 76% 29.97 in 9.0 mi Variable 4.6 mph - N/A   Partly Cloudy
10:57 AM 80.6 °F 83.9 °F 70.0 °F 70% 29.96 in 10.0 mi East 5.8 mph - N/A   Mostly Cloudy
11:57 AM 80.6 °F 82.7 °F 66.0 °F 61% 29.93 in 10.0 mi Variable 5.8 mph - N/A   Clear
12:57 PM 82.4 °F 84.4 °F 66.0 °F 57% 29.90 in 10.0 mi SE 4.6 mph - N/A   Partly Cloudy
1:57 PM 82.4 °F 84.8 °F 66.9 °F 59% 29.87 in 9.0 mi Variable 4.6 mph - N/A   Partly Cloudy
2:57 PM 82.4 °F 84.1 °F 64.9 °F 55% 29.85 in 8.0 mi East 5.8 mph - N/A   Partly Cloudy
3:57 PM 80.6 °F 82.4 °F 64.9 °F 59% 29.85 in 8.0 mi East 6.9 mph - N/A   Clear
4:57 PM 80.6 °F 82.2 °F 64.0 °F 57% 29.86 in 6.0 mi East 5.8 mph - N/A   Haze
5:57 PM 80.6 °F 82.4 °F 64.9 °F 59% 29.88 in 7.0 mi WSW 4.6 mph - N/A   Overcast
6:57 PM 75.2 °F - 64.9 °F 70% 29.89 in 8.0 mi West 5.8 mph - N/A   Scattered Clouds
7:57 PM 75.2 °F - 64.9 °F 70% 29.90 in 8.0 mi Calm Calm - N/A   Clear
8:57 PM 75.2 °F - 64.0 °F 68% 29.91 in 7.0 mi Calm Calm - N/A   Scattered Clouds
9:57 PM 75.2 °F - 63.0 °F 66% 29.90 in 6.0 mi Calm Calm - N/A   Haze
10:57 PM 75.2 °F - 62.1 °F 64% 29.90 in 6.0 mi Calm Calm - N/A   Haze
11:57 PM 73.4 °F - 63.0 °F 70% 29.88 in 6.0 mi Calm Calm - N/A   Haze